User: anonymous   Login
Location: *
(52.2090°N, 4.1550°W)
Time: 07:49:01
(UTC+00:00)
Language:

Cosmos 2034 Rocket - Orbit

View from above orbital plane
View from above orbital plane
View from above satellite
View from above satellite

Ground track
Ground track

The orbit data is extracted from the following two-line orbital elements,

1 20150U 89059B   19264.99554750  .00000072  00000-0  58634-4 0  9994
2 20150  82.9430 200.7161 0029948 131.5278 277.3480 13.75638783514060
Epoch (UTC): 21 September 2019 23:53:35
Eccentricity: 0.0029948
inclination: 82.9430°
perigee height: 957 km
apogee height: 1001 km
right ascension of ascending node: 200.7161°
argument of perigee: 131.5278°
revolutions per day: 13.75638783
mean anomaly at epoch: 277.3480°
orbit number at epoch: 51406

The dashed part of the orbit path shows where the satellite is in the earth's shadow,  

DLR